There are multiple Weather-warnings   Click here for more information


Meteo18 Weather Cam more information Meteo18 Weather Cam


warning for Thunderstorms more information blitzortung!


Rain radar more information rain snow radar


Visit our other weather sites:

Template documentation
and downloads

And another site



Weather Underground History page Text

Daily Summary for February 12, 2017 Units:  English    Metric   Both
« Previous Day
Next Day »
Daily Weekly Monthly Yearly Custom
  High: Low: Average:
Temperature: 55.6 °F 31.3 °F 41 °F
Dew Point: 45.7 °F 27.9 °F 36.5 °F
Humidity: 97 % 66 % 85 %
Wind Speed: 12 mph 0 mph 4.5 mph
Wind Gust: 17 mph - -
Wind:- - East
Pressure: 30.1 in 30 in -
Precipitation: 0.08 in    
Historical Graphs
 
 
Tabular Data for February 12, 2017
Time Temperature Dew Point Pressure Wind Wind Speed Wind Gust Humidity Rainfall Rate (Hourly)
00:02 32.2 °F 27.9 °F 30.1 in NNE 4 mph 9 mph 84 % 0 in
00:12 32.2 °F 27.9 °F 30.1 in NE 5 mph 8 mph 84 % 0 in
00:17 32.4 °F 28 °F 30.1 in NE 5 mph 8 mph 84 % 0 in
00:22 32.4 °F 28 °F 30.1 in NE 4 mph 8 mph 84 % 0 in
00:32 32.4 °F 28 °F 30.1 in NNE 3 mph 8 mph 84 % 0 in
00:37 32.4 °F 28 °F 30.1 in North 5 mph 8 mph 84 % 0 in
00:42 32.4 °F 28 °F 30.1 in NNE 6 mph 8 mph 84 % 0 in
00:47 32.4 °F 28 °F 30.1 in NE 6 mph 9 mph 84 % 0 in
00:52 32.4 °F 28 °F 30.1 in NE 4 mph 10 mph 84 % 0 in
00:57 32.4 °F 28 °F 30.1 in NE 5 mph 10 mph 84 % 0 in
01:02 32.4 °F 28 °F 30.1 in NNE 4 mph 9 mph 84 % 0 in
01:12 32.4 °F 28 °F 30.1 in NE 2 mph 10 mph 84 % 0 in
01:17 32.2 °F 28.2 °F 30.1 in NE 5 mph 10 mph 85 % 0 in
01:22 32.2 °F 28.2 °F 30.1 in NE 4 mph 10 mph 85 % 0 in
01:27 32.2 °F 28.2 °F 30.1 in NE 4 mph 9 mph 85 % 0 in
01:32 32 °F 28.2 °F 30.1 in North 6 mph 9 mph 86 % 0 in
01:42 31.8 °F 28.4 °F 30.1 in NE 5 mph 10 mph 87 % 0 in
01:47 31.6 °F 28.6 °F 30.1 in NE 4 mph 10 mph 88 % 0 in
01:52 31.5 °F 28.6 °F 30.1 in NE 4 mph 9 mph 89 % 0 in
01:57 31.3 °F 28.4 °F 30.1 in North 2 mph 10 mph 89 % 0 in
02:02 31.3 °F 28.4 °F 30.1 in NNE 8 mph 10 mph 89 % 0 in
02:07 31.3 °F 28.4 °F 30.1 in NE 8 mph 10 mph 89 % 0 in
02:17 31.3 °F 28.4 °F 30.1 in NE 8 mph 10 mph 89 % 0 in
02:22 31.5 °F 28.6 °F 30.1 in NNW 5 mph 10 mph 89 % 0 in
02:32 31.5 °F 28.6 °F 30.1 in North 5 mph 11 mph 89 % 0 in
02:37 31.5 °F 28.6 °F 30.1 in NNE 6 mph 12 mph 89 % 0 in
02:42 31.5 °F 28.6 °F 30.1 in NE 9 mph 12 mph 89 % 0 in
02:52 31.6 °F 28.8 °F 30.1 in NE 11 mph 12 mph 89 % 0 in
02:57 31.6 °F 29.1 °F 30.1 in NW 2 mph 13 mph 90 % 0 in
03:02 31.6 °F 28.8 °F 30.1 in North 8 mph 13 mph 89 % 0 in
03:12 31.5 °F 28.9 °F 30.1 in NNE 3 mph 13 mph 90 % 0 in
03:22 31.5 °F 28.9 °F 30.1 in NNE 7 mph 13 mph 90 % 0 in
03:27 31.5 °F 29.1 °F 30.1 in NNE 12 mph 16 mph 91 % 0 in
03:32 31.5 °F 29.1 °F 30.1 in NE 8 mph 16 mph 91 % 0 in
03:37 31.5 °F 29.1 °F 30.1 in North 7 mph 16 mph 91 % 0 in
03:42 31.5 °F 29.1 °F 30.1 in NE 9 mph 16 mph 91 % 0 in
03:47 31.5 °F 29.1 °F 30.1 in NNE 5 mph 13 mph 91 % 0 in
03:52 31.5 °F 29.5 °F 30.1 in NNE 8 mph 12 mph 92 % 0 in
04:02 31.3 °F 29.3 °F 30.1 in NE 8 mph 12 mph 92 % 0 in
04:12 31.3 °F 29.5 °F 30.1 in NE 8 mph 11 mph 93 % 0 in
04:17 31.3 °F 29.5 °F 30.1 in NNE 7 mph 14 mph 93 % 0 in
04:22 31.3 °F 29.5 °F 30 in NE 7 mph 14 mph 93 % 0.01 in
04:27 31.5 °F 29.7 °F 30 in NNE 6 mph 14 mph 93 % 0.01 in
04:32 31.5 °F 29.7 °F 30.1 in NNE 8 mph 12 mph 93 % 0.01 in
04:37 31.5 °F 29.7 °F 30.1 in NNE 7 mph 11 mph 93 % 0.02 in
04:42 31.5 °F 29.7 °F 30 in NE 9 mph 11 mph 93 % 0.03 in
04:47 31.5 °F 30 °F 30 in NE 7 mph 11 mph 94 % 0.03 in
04:52 31.5 °F 30 °F 30 in NNE 6 mph 11 mph 94 % 0.03 in
04:57 31.5 °F 30 °F 30 in ENE 6 mph 12 mph 94 % 0.03 in
05:02 31.5 °F 30 °F 30 in NNE 8 mph 12 mph 94 % 0.03 in
05:07 31.5 °F 30 °F 30 in NE 7 mph 11 mph 94 % 0.03 in
05:12 31.5 °F 30 °F 30 in NE 9 mph 11 mph 94 % 0.03 in
05:17 31.5 °F 30.2 °F 30 in North 4 mph 11 mph 95 % 0.02 in
05:27 31.6 °F 30.4 °F 30 in ENE 4 mph 12 mph 95 % 0.02 in
05:32 31.6 °F 30.4 °F 30 in NNE 5 mph 12 mph 95 % 0.02 in
05:37 31.6 °F 30.4 °F 30 in NNE 7 mph 11 mph 95 % 0.01 in
05:42 31.6 °F 30.4 °F 30 in NE 7 mph 11 mph 95 % 0.01 in
05:47 31.6 °F 30.4 °F 30 in NE 4 mph 11 mph 95 % 0 in
05:52 31.6 °F 30.4 °F 30 in NNE 5 mph 11 mph 95 % 0 in
05:57 31.8 °F 30.6 °F 30 in ENE 5 mph 9 mph 95 % 0 in
06:02 31.8 °F 30.6 °F 30 in NNE 3 mph 9 mph 95 % 0 in
06:07 31.8 °F 30.6 °F 30 in NNE 8 mph 9 mph 95 % 0 in
06:12 32 °F 30.7 °F 30 in North 4 mph 9 mph 95 % 0 in
06:17 32 °F 30.7 °F 30 in NNE 6 mph 9 mph 95 % 0 in
06:22 32.2 °F 30.9 °F 30 in North 3 mph 9 mph 95 % 0 in
06:27 32.2 °F 30.9 °F 30 in NNE 4 mph 9 mph 95 % 0 in
06:32 32.2 °F 30.9 °F 30 in NE 5 mph 7 mph 95 % 0 in
06:37 32.2 °F 30.9 °F 30 in NE 1 mph 7 mph 95 % 0 in
06:42 32.2 °F 30.9 °F 30 in North 2 mph 8 mph 95 % 0 in
06:47 32.4 °F 31.1 °F 30 in NNE 6 mph 8 mph 95 % 0 in
06:52 32.4 °F 31.1 °F 30 in NNW 4 mph 7 mph 95 % 0 in
06:57 32.4 °F 31.1 °F 30 in NNE 3 mph 7 mph 95 % 0 in
07:02 32.4 °F 31.1 °F 30 in NE 3 mph 8 mph 95 % 0 in
07:07 32.4 °F 31.3 °F 30 in NNW 1 mph 8 mph 96 % 0 in
07:17 32.4 °F 31.3 °F 30 in NE 3 mph 5 mph 96 % 0 in
07:22 32.4 °F 31.3 °F 30 in ENE 3 mph 4 mph 96 % 0 in
07:37 32.5 °F 31.5 °F 30 in North 1 mph 5 mph 96 % 0 in
07:42 32.5 °F 31.5 °F 30 in NNW 1 mph 5 mph 96 % 0 in
07:47 32.5 °F 31.5 °F 30 in NNE 3 mph 4 mph 96 % 0 in
07:52 32.5 °F 31.5 °F 30 in NNE 2 mph 4 mph 96 % 0 in
07:57 32.5 °F 31.5 °F 30 in Calm   3 mph 96 % 0 in
08:02 32.5 °F 31.5 °F 30 in Calm   3 mph 96 % 0 in
08:12 32.7 °F 31.6 °F 30 in NNE 2 mph 4 mph 96 % 0 in
08:17 32.7 °F 31.6 °F 30 in NNE 1 mph 4 mph 96 % 0 in
08:22 32.7 °F 31.6 °F 30 in NNE 1 mph 4 mph 96 % 0 in
08:32 32.7 °F 31.6 °F 30.1 in North 2 mph 4 mph 96 % 0 in
08:37 32.9 °F 31.8 °F 30.1 in NNE 2 mph 4 mph 96 % 0 in
08:42 32.9 °F 31.8 °F 30.1 in NNE 1 mph 4 mph 96 % 0 in
08:47 33.1 °F 32 °F 30.1 in NNE 1 mph 4 mph 96 % 0 in
08:52 33.1 °F 32 °F 30.1 in Calm   4 mph 96 % 0 in
08:57 33.1 °F 32 °F 30.1 in Calm   4 mph 96 % 0 in
09:02 33.3 °F 32.2 °F 30.1 in North 1 mph 4 mph 96 % 0 in
09:12 33.4 °F 32.4 °F 30.1 in Calm   2 mph 96 % 0.01 in
09:17 33.6 °F 32.9 °F 30.1 in NE 1 mph 3 mph 97 % 0.01 in
09:22 33.6 °F 32.9 °F 30.1 in NE 3 mph 3 mph 97 % 0.01 in
09:27 33.8 °F 33.1 °F 30.1 in NNE 2 mph 3 mph 97 % 0.01 in
09:32 34 °F 33.3 °F 30.1 in NNE 2 mph 4 mph 97 % 0.01 in
09:37 34 °F 33.3 °F 30.1 in NNE 2 mph 4 mph 97 % 0.01 in
09:42 34.2 °F 33.4 °F 30.1 in NE 1 mph 4 mph 97 % 0.01 in
09:52 34.3 °F 33.6 °F 30.1 in NNE 2 mph 4 mph 97 % 0.01 in
09:57 34.5 °F 33.8 °F 30.1 in ENE 3 mph 4 mph 97 % 0.02 in
10:02 34.9 °F 34.2 °F 30.1 in NNW 2 mph 5 mph 97 % 0.02 in
10:12 35.4 °F 34.7 °F 30.1 in NE 4 mph 5 mph 97 % 0.02 in
10:17 35.8 °F 35.1 °F 30.1 in NNE 1 mph 6 mph 97 % 0.02 in
10:22 36.1 °F 35.4 °F 30 in North 2 mph 10 mph 97 % 0.02 in
10:32 36.7 °F 36 °F 30.1 in NE 2 mph 10 mph 97 % 0.03 in
10:37 37 °F 36.3 °F 30.1 in NNW 2 mph 7 mph 97 % 0.03 in
10:42 37.6 °F 36.9 °F 30.1 in North 1 mph 6 mph 97 % 0.03 in
10:52 38.1 °F 37.4 °F 30.1 in NNE 5 mph 6 mph 97 % 0.04 in
10:57 38.3 °F 37.2 °F 30.1 in ENE 2 mph 6 mph 96 % 0.03 in
11:02 38.8 °F 37.8 °F 30 in NE 3 mph 8 mph 96 % 0.03 in
11:12 39.6 °F 38.5 °F 30 in NE 2 mph 8 mph 96 % 0.02 in
11:17 39.7 °F 38.5 °F 30 in NNE 2 mph 8 mph 95 % 0.02 in
11:22 39.7 °F 38.5 °F 30.1 in NNE 1 mph 7 mph 95 % 0.01 in
11:27 39.6 °F 38.3 °F 30.1 in ENE 5 mph 5 mph 95 % 0.01 in
11:32 39.9 °F 38.7 °F 30 in NE 1 mph 7 mph 95 % 0.01 in
11:37 40.6 °F 39.6 °F 30 in NE 2 mph 7 mph 96 % 0.01 in
11:42 41.2 °F 39.9 °F 30 in East 4 mph 7 mph 95 % 0.01 in
11:47 41.7 °F 40.5 °F 30 in NE 1 mph 8 mph 95 % 0 in
11:52 42.1 °F 40.5 °F 30 in NNW 3 mph 8 mph 94 % 0 in
11:57 42.4 °F 40.8 °F 30 in Calm   8 mph 94 % 0 in
12:02 43 °F 41.2 °F 30 in NNE 3 mph 6 mph 93 % 0 in
12:12 44.2 °F 42.3 °F 30 in ENE 6 mph 6 mph 93 % 0 in
12:17 44.8 °F 42.6 °F 30 in ENE 4 mph 5 mph 92 % 0 in
12:22 45 °F 42.4 °F 30 in ENE 2 mph 6 mph 91 % 0 in
12:27 45.3 °F 42.8 °F 30 in NNE 1 mph 6 mph 91 % 0 in
12:32 45.5 °F 42.8 °F 30 in NNE 4 mph 6 mph 90 % 0 in
12:37 45.7 °F 43 °F 30 in ENE 1 mph 6 mph 90 % 0 in
12:42 45.9 °F 43.2 °F 30 in ENE 3 mph 6 mph 90 % 0 in
12:52 46.6 °F 43.5 °F 30 in ENE 3 mph 6 mph 89 % 0 in
12:57 46.9 °F 43.5 °F 30 in NE 1 mph 6 mph 88 % 0 in
13:02 47.1 °F 44.1 °F 30 in NNE 3 mph 6 mph 89 % 0 in
13:07 47.1 °F 44.1 °F 30 in NE 2 mph 6 mph 89 % 0 in
13:12 47.3 °F 43.9 °F 30 in ENE 3 mph 6 mph 88 % 0 in
13:17 47.5 °F 44.1 °F 30 in NE 2 mph 6 mph 88 % 0 in
13:22 47.7 °F 44.6 °F 30 in ENE 4 mph 6 mph 89 % 0 in
13:32 48.2 °F 44.8 °F 30 in ENE 2 mph 5 mph 88 % 0 in
13:42 49.5 °F 44.8 °F 30 in East 6 mph 7 mph 84 % 0 in
13:47 50.4 °F 45.1 °F 30 in ESE 3 mph 9 mph 82 % 0 in
13:57 51.1 °F 45.5 °F 30 in SE 6 mph 9 mph 81 % 0 in
14:02 51.4 °F 45.5 °F 30 in SE 4 mph 8 mph 80 % 0 in
14:12 52.3 °F 45.3 °F 30 in ESE 2 mph 13 mph 77 % 0 in
14:17 52.5 °F 44.4 °F 30 in East 11 mph 13 mph 74 % 0 in
14:22 52.7 °F 44.6 °F 30 in ENE 9 mph 13 mph 74 % 0 in
14:27 52.9 °F 45.1 °F 30 in East 7 mph 13 mph 75 % 0 in
14:32 53.1 °F 45 °F 30 in ENE 9 mph 13 mph 74 % 0 in
14:42 53.1 °F 44.2 °F 30 in ESE 3 mph 14 mph 72 % 0 in
14:47 53.2 °F 45.1 °F 30 in ENE 6 mph 14 mph 74 % 0 in
14:57 53.4 °F 44.2 °F 30 in East 4 mph 10 mph 71 % 0 in
15:02 53.6 °F 44.4 °F 30 in East 6 mph 10 mph 71 % 0 in
15:07 53.6 °F 44.1 °F 30 in ESE 7 mph 13 mph 70 % 0 in
15:17 53.8 °F 43.9 °F 30 in East 5 mph 13 mph 69 % 0 in
15:22 54.3 °F 44.8 °F 30 in East 5 mph 10 mph 70 % 0 in
15:32 55 °F 44.6 °F 30 in ENE 4 mph 9 mph 68 % 0 in
15:37 55 °F 43.9 °F 30 in East 8 mph 11 mph 66 % 0 in
15:42 55.2 °F 45.7 °F 30 in SE 2 mph 11 mph 70 % 0 in
15:47 55.6 °F 44.8 °F 30 in East 9 mph 11 mph 67 % 0 in
15:52 55.2 °F 44.8 °F 30 in East 6 mph 11 mph 68 % 0 in
15:57 55.2 °F 44.4 °F 30 in ESE 5 mph 11 mph 67 % 0 in
16:02 55 °F 44.6 °F 30 in East 6 mph 14 mph 68 % 0 in
16:07 55 °F 44.2 °F 30 in ESE 5 mph 14 mph 67 % 0 in
16:12 55 °F 43.9 °F 30 in East 8 mph 14 mph 66 % 0 in
16:17 55 °F 44.2 °F 30 in East 3 mph 11 mph 67 % 0 in
16:22 55 °F 44.2 °F 30 in East 7 mph 11 mph 67 % 0 in
16:32 54.9 °F 43.7 °F 30 in East 5 mph 13 mph 66 % 0 in
16:42 54.5 °F 43.7 °F 30 in ENE 6 mph 13 mph 67 % 0 in
16:52 54.3 °F 43.5 °F 30 in East 9 mph 11 mph 67 % 0 in
16:57 54.3 °F 43.5 °F 30 in ESE 4 mph 13 mph 67 % 0 in
17:02 54.1 °F 43.3 °F 30 in East 5 mph 13 mph 67 % 0 in
17:07 54 °F 43.7 °F 30 in East 3 mph 13 mph 68 % 0 in
17:12 54 °F 43.3 °F 30 in ENE 5 mph 9 mph 67 % 0 in
17:17 54 °F 43.7 °F 30 in ESE 5 mph 12 mph 68 % 0 in
17:22 53.8 °F 43.5 °F 30 in SSE 4 mph 12 mph 68 % 0 in
17:32 53.8 °F 43.2 °F 30 in East 6 mph 12 mph 67 % 0 in
17:42 53.6 °F 43 °F 30 in SE 6 mph 8 mph 67 % 0 in
17:47 53.6 °F 42.4 °F 30 in East 7 mph 11 mph 66 % 0 in
17:52 53.4 °F 42.3 °F 30 in East 6 mph 11 mph 66 % 0 in
17:57 53.2 °F 42.6 °F 30 in East 5 mph 11 mph 67 % 0 in
18:02 53.2 °F 42.6 °F 30 in East 5 mph 10 mph 67 % 0 in
18:12 52.9 °F 42.3 °F 30 in East 4 mph 10 mph 67 % 0 in
18:17 52.9 °F 42.6 °F 30 in ESE 7 mph 10 mph 68 % 0 in
18:22 52.5 °F 42.3 °F 30 in ENE 3 mph 10 mph 68 % 0 in
18:27 52.3 °F 42.1 °F 30 in ENE 8 mph 10 mph 68 % 0 in
18:32 52.5 °F 42.3 °F 30 in ENE 4 mph 11 mph 68 % 0 in
18:37 52.3 °F 42.4 °F 30 in East 5 mph 11 mph 69 % 0 in
18:42 52.2 °F 42.3 °F 30 in East 7 mph 11 mph 69 % 0 in
18:47 52.3 °F 42.1 °F 30 in East 6 mph 17 mph 68 % 0 in
18:52 52.5 °F 41.9 °F 30 in ESE 8 mph 17 mph 67 % 0 in
19:02 52 °F 42.1 °F 30 in ENE 7 mph 15 mph 69 % 0 in
19:07 51.4 °F 41.9 °F 30 in ENE 8 mph 13 mph 70 % 0 in
19:12 51.1 °F 42.1 °F 30 in ENE 5 mph 10 mph 71 % 0 in
19:17 50.9 °F 41.9 °F 30 in ENE 7 mph 12 mph 71 % 0 in
19:22 50.7 °F 42.1 °F 30 in East 9 mph 12 mph 72 % 0 in
19:32 51.1 °F 42.1 °F 30.1 in ENE 9 mph 10 mph 71 % 0 in
19:37 51.1 °F 41.7 °F 30.1 in East 6 mph 10 mph 70 % 0 in
19:42 51.1 °F 42.1 °F 30.1 in ENE 7 mph 10 mph 71 % 0 in
19:52 50.5 °F 41.5 °F 30.1 in ENE 7 mph 10 mph 71 % 0 in
19:57 50.4 °F 41.7 °F 30.1 in East 4 mph 10 mph 72 % 0 in
20:02 50 °F 41.7 °F 30.1 in ENE 4 mph 10 mph 73 % 0 in
20:12 49.5 °F 41.2 °F 30.1 in ENE 5 mph 8 mph 73 % 0 in
20:22 49.5 °F 41.5 °F 30.1 in ENE 4 mph 10 mph 74 % 0 in
20:27 49.1 °F 41.2 °F 30.1 in ENE 5 mph 10 mph 74 % 0 in
20:32 48.9 °F 41.4 °F 30.1 in ENE 5 mph 8 mph 75 % 0 in
20:42 48.6 °F 41 °F 30.1 in NE 5 mph 9 mph 75 % 0 in
20:47 48.6 °F 41 °F 30.1 in ENE 5 mph 9 mph 75 % 0 in
20:52 48.6 °F 41 °F 30.1 in ENE 1 mph 8 mph 75 % 0 in
20:57 48.4 °F 40.8 °F 30.1 in NNE 2 mph 7 mph 75 % 0 in
21:02 48.4 °F 40.8 °F 30.1 in ENE 7 mph 7 mph 75 % 0 in
21:12 48.4 °F 40.8 °F 30.1 in ENE 2 mph 8 mph 75 % 0 in
21:17 48.2 °F 40.6 °F 30.1 in ENE 3 mph 8 mph 75 % 0 in
21:27 47.8 °F 40.3 °F 30.1 in ENE 4 mph 7 mph 75 % 0 in
21:32 47.8 °F 40.3 °F 30.1 in ENE 1 mph 7 mph 75 % 0 in
21:42 47.7 °F 40.1 °F 30.1 in NE 2 mph 7 mph 75 % 0 in
21:47 47.7 °F 40.1 °F 30.1 in ENE 5 mph 7 mph 75 % 0 in
21:52 47.7 °F 40.5 °F 30.1 in ENE 3 mph 7 mph 76 % 0 in
22:02 47.7 °F 40.1 °F 30.1 in NE 2 mph 6 mph 75 % 0 in
Meteo18
Compliments of Weather Underground - 4 mb

Script developed by  Jim McMurry - jmcmurry@mwt.net Adapted for the template by  Wim van der Kuil - Leuven-Template.eu

You find our weather info also at:

European Weather Network

Weather Underground

Equipment we use:

Weather-station
Davis Vue

Weather-program
Meteohub

Weather-server
Raspberry PI 2 B+

Provider
1 and 1

Davis Vue

Meteohub

Raspberry PI 2 B+

1 and 1